Location: Newark
(35.8833°N, 14.5000°E)
Time: 21:26:12
(UTC+00:00)

AO-91 - Visible Passes

Search period start: 03 August 2020 00:00
Search period end: 13 August 2020 00:00
Orbit: 453 x 811 km, 97.7° (Epoch: 02 August)

Date Brightness Start Highest point End Pass type
(mag) Time Alt. Az. Time Alt. Az. Time Alt. Az.
03 Aug ? 23:24:57 10° N 23:27:02 23° NNW 23:27:02 23° NNW visible
04 Aug ? 22:10:18 10° NE 22:10:52 13° NE 22:10:52 13° NE visible
04 Aug ? 23:46:33 10° NNW 23:48:18 18° NNW 23:48:18 18° NNW visible
05 Aug ? 22:31:01 10° NNE 22:32:08 16° NNE 22:32:08 16° NNE visible
06 Aug ? 00:08:31 10° NNW 00:09:33 13° NW 00:09:33 13° NW visible
06 Aug ? 22:52:00 10° NNE 22:53:23 19° NNE 22:53:23 19° NNE visible
07 Aug ? 23:13:13 10° N 23:14:39 19° N 23:14:39 19° N visible
08 Aug ? 23:34:41 10° N 23:35:53 16° NNW 23:35:53 16° NNW visible
09 Aug ? 22:19:36 10° NNE 22:19:43 11° NNE 22:19:43 11° NNE visible
09 Aug ? 23:56:27 10° NNW 23:57:08 13° NNW 23:57:08 13° NNW visible
10 Aug ? 22:40:26 10° NNE 22:40:57 13° NNE 22:40:57 13° NNE visible
11 Aug ? 23:01:31 10° N 23:02:11 14° N 23:02:11 14° N visible
12 Aug ? 23:22:51 10° N 23:23:25 13° N 23:23:25 13° N visible
